Regional Weather Roundup
Issued by NWS

Home | Current Version | Previous Version | Text Only | Print | Product List | Glossary Off
Versions: 1 2 3 4 5 6 7 8 9 10 11 12 13 14 15 16 17 18 19 20 21 22 23 24 25 26 27 28 29 30 31 32 33 34 35 36 37 38 39 40 41 42 43 44 45 46 47 48 49 50

000
ASUS43 KLSX 200807
RWRMO

WEATHER SUMMARY FOR MISSOURI
NATIONAL WEATHER SERVICE SPRINGFIELD MO
300 AM CDT WED SEP 20 2017

NOTE: "FAIR" INDICATES FEW OR NO CLOUDS BELOW 12,000 FEET WITH NO
       SIGNIFICANT WEATHER AND/OR OBSTRUCTIONS TO VISIBILITY.
       CURRENT SKY AND/OR WEATHER CONDITIONS ARE NOT AVAILABLE FOR
       CHILLICOTHE AND FARMINGTON.

MOZ001>031-035>038-043-044-053-054-200900-
...NORTHERN AND WESTERN MISSOURI...

CITY           SKY/WX    TMP DP  RH WIND       PRES   REMARKS
KANSAS CTY INT CLEAR     76  69  79 S15       29.71F
KANSAS C DTWN  CLEAR     79  70  74 S7        29.71F
LEE`S SUMMIT   CLEAR     76  69  79 S14       29.75F
ST JOSEPH      CLOUDY    78  70  76 S18G28    29.67F
CHILLICOTHE      N/A     75  69  81 S7        29.75F
KIRKSVILLE     CLEAR     72  66  81 S12       29.78F

$$
MOZ066>068-077>081-088>096-101>105-200900-
...SOUTHWEST MISSOURI...

CITY           SKY/WX    TMP DP  RH WIND       PRES   REMARKS
SPRINGFIELD    PTCLDY    73  69  87 S10       29.85F
JOPLIN         CLEAR     75  72  90 S13       29.80F
BRANSON        CLEAR     70  68  94 CALM      29.89F

$$
MOZ032>034-039>042-045>050-055>058-069>072-200900-
...CENTRAL MISSOURI...

CITY           SKY/WX    TMP DP  RH WIND       PRES   REMARKS
COLUMBIA       CLEAR     74  68  81 S10       29.83F
JEFFERSON CITY CLEAR     73  66  78 E5        29.82F
ROLLA          CLEAR     71  68  90 S9        29.88S
SEDALIA        CLEAR     76  70  82 S12       29.80F
WHITEMAN AFB   PTCLDY    73  66  78 S15       29.77F
WARRENSBURG    CLEAR     72  64  78 S9        29.77F
OSAGE BEACH    CLEAR     72  67  84 SE6       29.85F

$$
MOZ051-052-059>065-200900-
...EAST CENTRAL MISSOURI...

CITY           SKY/WX    TMP DP  RH WIND       PRES   REMARKS
ST LOUIS INTL  CLEAR     76  69  79 S7        29.87S
SPIRIT OF STL  CLEAR     74  68  81 S6        29.84F
ST CHARLES     CLEAR     69  67  93 E5        29.84F

$$
MOZ072>076-082>087-097>100-106>115-200900-
...SOUTH CENTRAL AND SOUTHEAST MISSOURI...

CITY           SKY/WX    TMP DP  RH WIND       PRES   REMARKS
CAPE GIRARDEAU CLEAR     74  69  85 S7        29.90F
FARMINGTON     CLEAR     71  67  87 CALM      29.90F
POPLAR BLUFF   CLEAR     68  67  96 CALM      29.89F
WEST PLAINS    CLEAR     72  69  90 S5        29.91F

$$


USA.gov is the U.S. government's official web portal to all federal, state and local government web resources and services.